QTR1153 OEDF-OTHH

Flight info

Callsign QTR1153
Flight time 0h 31m
Altitude 16000
Route LADNA N318 HAYYA
Aircraft B77W/H-SDE1E2E3FGHIJ2J3J4J5M1RWXY/LB1D1

Departure

Time 2026-05-06 18:41
Airport King Fahd International Airport (OEDF)

Arrival

Time 2026-05-06 19:13
Airport Hamad International Airport (OTHH)
Time Latitude Longitude Altitude Speed Heading
2026-05-06 18:31 26.47318 49.79203 87 ft 0 kts 154°
2026-05-06 18:35 26.47267 49.79230 87 ft 11 kts 154°
2026-05-06 18:35 26.47198 49.79268 86 ft 12 kts 154°
2026-05-06 18:35 26.47116 49.79312 69 ft 16 kts 154°
2026-05-06 18:35 26.47028 49.79359 69 ft 11 kts 154°
2026-05-06 18:36 26.46961 49.79395 69 ft 11 kts 155°
2026-05-06 18:36 26.46887 49.79432 64 ft 12 kts 158°
2026-05-06 18:36 26.46806 49.79464 66 ft 13 kts 163°
2026-05-06 18:36 26.46701 49.79493 67 ft 17 kts 166°
2026-05-06 18:37 26.46627 49.79509 67 ft 10 kts 171°
2026-05-06 18:37 26.46546 49.79517 70 ft 12 kts 175°
2026-05-06 18:37 26.46459 49.79530 85 ft 14 kts 173°
2026-05-06 18:37 26.46338 49.79544 86 ft 18 kts 177°
2026-05-06 18:38 26.46214 49.79549 84 ft 15 kts 178°
2026-05-06 18:38 26.46109 49.79554 88 ft 14 kts 176°
2026-05-06 18:38 26.46015 49.79567 88 ft 14 kts 173°
2026-05-06 18:38 26.45938 49.79517 88 ft 14 kts 244°
2026-05-06 18:39 26.45906 49.79416 86 ft 12 kts 237°
2026-05-06 18:39 26.45827 49.79400 88 ft 13 kts 172°
2026-05-06 18:39 26.45739 49.79425 88 ft 13 kts 165°
2026-05-06 18:40 26.45599 49.79376 88 ft 14 kts 253°
2026-05-06 18:40 26.45572 49.79271 88 ft 15 kts 253°
2026-05-06 18:40 26.45570 49.79164 87 ft 14 kts 307°
2026-05-06 18:40 26.45682 49.79118 86 ft 29 kts 345°
2026-05-06 18:41 26.46173 49.78967 87 ft 129 kts 344°
2026-05-06 18:41 26.47318 49.78588 504 ft 194 kts 344°
2026-05-06 18:41 26.48639 49.78142 1590 ft 199 kts 343°
2026-05-06 18:41 26.49890 49.77701 2511 ft 171 kts 340°
2026-05-06 18:42 26.50988 49.77326 3059 ft 166 kts 339°
2026-05-06 18:42 26.52115 49.76891 3674 ft 177 kts 334°
2026-05-06 18:42 26.53282 49.76359 4357 ft 186 kts 333°
2026-05-06 18:42 26.54644 49.76006 4682 ft 223 kts 358°
2026-05-06 18:43 26.56226 49.76622 4946 ft 264 kts 34°
2026-05-06 18:43 26.57404 49.78303 5483 ft 287 kts 68°
2026-05-06 18:43 26.57705 49.80536 6273 ft 297 kts 95°
2026-05-06 18:43 26.57391 49.82823 6858 ft 299 kts 103°
2026-05-06 18:44 26.56901 49.85092 7013 ft 303 kts 105°
2026-05-06 18:44 26.56375 49.87382 7361 ft 306 kts 105°
2026-05-06 18:44 26.55859 49.89682 8501 ft 302 kts 105°
2026-05-06 18:44 26.55305 49.91935 9603 ft 300 kts 110°
2026-05-06 18:45 26.54618 49.94137 10555 ft 304 kts 111°
2026-05-06 18:45 26.53944 49.96426 11069 ft 328 kts 109°
2026-05-06 18:45 26.53283 49.99005 11311 ft 362 kts 106°
2026-05-06 18:45 26.52855 50.00899 11542 ft 381 kts 105°
2026-05-06 18:46 26.52085 50.04785 12886 ft 389 kts 103°
2026-05-06 18:46 26.51551 50.07748 14085 ft 390 kts 102°
2026-05-06 18:46 26.51031 50.10751 15091 ft 396 kts 102°
2026-05-06 18:46 26.50512 50.13806 15940 ft 405 kts 102°
2026-05-06 18:47 26.49983 50.16929 16790 ft 414 kts 102°
2026-05-06 18:47 26.49443 50.20115 17698 ft 421 kts 102°
2026-05-06 18:47 26.48889 50.23366 18457 ft 431 kts 102°
2026-05-06 18:47 26.48323 50.26683 19212 ft 438 kts 102°
2026-05-06 18:48 26.47632 50.30007 19918 ft 443 kts 110°
2026-05-06 18:48 26.46380 50.33113 20615 ft 447 kts 122°
2026-05-06 18:48 26.44607 50.35949 20864 ft 450 kts 132°
2026-05-06 18:48 26.42466 50.38546 20857 ft 459 kts 135°
2026-05-06 18:49 26.40258 50.41132 20855 ft 461 kts 136°
2026-05-06 18:49 26.38044 50.43723 20847 ft 461 kts 135°
2026-05-06 18:49 26.35834 50.46323 20847 ft 462 kts 135°
2026-05-06 18:49 26.33630 50.48932 20853 ft 462 kts 135°
2026-05-06 18:50 26.31431 50.51551 20859 ft 463 kts 135°
2026-05-06 18:50 26.29236 50.54173 20847 ft 463 kts 135°
2026-05-06 18:50 26.27036 50.56806 20847 ft 463 kts 135°
2026-05-06 18:50 26.24842 50.59434 20852 ft 463 kts 135°
2026-05-06 18:51 26.22647 50.62061 20855 ft 463 kts 135°
2026-05-06 18:51 26.20451 50.64687 20860 ft 463 kts 135°
2026-05-06 18:51 26.18255 50.67312 20854 ft 464 kts 135°
2026-05-06 18:51 26.16052 50.69943 20857 ft 464 kts 135°
2026-05-06 18:52 26.13844 50.72577 20860 ft 465 kts 135°
2026-05-06 18:52 26.11638 50.75208 20850 ft 465 kts 135°
2026-05-06 18:52 26.09432 50.77836 20854 ft 465 kts 135°
2026-05-06 18:52 26.07224 50.80467 20857 ft 465 kts 135°
2026-05-06 18:53 26.05042 50.83064 20856 ft 465 kts 135°
2026-05-06 18:53 26.02804 50.85727 20854 ft 465 kts 135°
2026-05-06 18:53 26.00621 50.88321 20848 ft 465 kts 135°
2026-05-06 18:53 25.98413 50.90945 20850 ft 465 kts 134°
2026-05-06 18:54 25.96202 50.93570 20853 ft 465 kts 135°
2026-05-06 18:54 25.93993 50.96193 20850 ft 465 kts 134°
2026-05-06 18:54 25.91782 50.98815 20853 ft 464 kts 135°
2026-05-06 18:54 25.89574 51.01432 20853 ft 464 kts 134°
2026-05-06 18:55 25.87367 51.04047 20848 ft 464 kts 134°
2026-05-06 18:55 25.85161 51.06659 20852 ft 464 kts 134°
2026-05-06 18:55 25.82960 51.09263 20849 ft 460 kts 134°
2026-05-06 18:55 25.80796 51.11825 20837 ft 448 kts 135°
2026-05-06 18:56 25.78683 51.14325 20572 ft 443 kts 135°
2026-05-06 18:56 25.76577 51.16812 20148 ft 441 kts 135°
2026-05-06 18:56 25.74471 51.19297 19801 ft 440 kts 134°
2026-05-06 18:56 25.73084 51.20933 19580 ft 440 kts 134°
2026-05-06 18:57 25.70992 51.23401 19123 ft 436 kts 134°
2026-05-06 18:57 25.68934 51.25827 18635 ft 429 kts 134°
2026-05-06 18:57 25.66905 51.28218 18135 ft 423 kts 134°
2026-05-06 18:57 25.64898 51.30582 17572 ft 418 kts 134°
2026-05-06 18:58 25.62919 51.32910 17013 ft 412 kts 134°
2026-05-06 18:58 25.60965 51.35208 16462 ft 407 kts 133°
2026-05-06 18:58 25.59032 51.37481 15925 ft 402 kts 133°
2026-05-06 18:58 25.57125 51.39722 15399 ft 398 kts 132°
2026-05-06 18:59 25.55240 51.41935 14951 ft 392 kts 132°
2026-05-06 18:59 25.53380 51.44119 14537 ft 386 kts 132°
2026-05-06 18:59 25.51622 51.46182 14090 ft 381 kts 132°
2026-05-06 18:59 25.49815 51.48303 13657 ft 376 kts 131°
2026-05-06 19:00 25.48028 51.50398 13144 ft 372 kts 132°
2026-05-06 19:00 25.46257 51.52474 12645 ft 369 kts 131°
2026-05-06 19:00 25.44503 51.54531 12150 ft 367 kts 131°
2026-05-06 19:00 25.42758 51.56574 11664 ft 364 kts 131°
2026-05-06 19:01 25.41022 51.58607 11174 ft 362 kts 132°
2026-05-06 19:01 25.39291 51.60633 10673 ft 361 kts 132°
2026-05-06 19:01 25.37572 51.62645 10197 ft 359 kts 132°
2026-05-06 19:01 25.35860 51.64647 9712 ft 358 kts 132°
2026-05-06 19:02 25.34150 51.66644 9197 ft 357 kts 132°
2026-05-06 19:02 25.32450 51.68629 8695 ft 355 kts 132°
2026-05-06 19:02 25.30641 51.70391 8315 ft 345 kts 147°
2026-05-06 19:02 25.28478 51.71476 7987 ft 339 kts 161°
2026-05-06 19:03 25.26265 51.72313 7661 ft 333 kts 159°
2026-05-06 19:03 25.24140 51.73201 7334 ft 329 kts 158°
2026-05-06 19:03 25.21991 51.74136 7007 ft 325 kts 157°
2026-05-06 19:03 25.19955 51.75031 6670 ft 312 kts 157°
2026-05-06 19:04 25.17991 51.75896 6332 ft 297 kts 156°
2026-05-06 19:04 25.16123 51.76712 5982 ft 279 kts 156°
2026-05-06 19:04 25.14357 51.77444 5624 ft 263 kts 158°
2026-05-06 19:04 25.12683 51.78115 5251 ft 249 kts 158°
2026-05-06 19:05 25.11108 51.78789 4947 ft 237 kts 155°
2026-05-06 19:05 25.09636 51.79480 4736 ft 224 kts 154°
2026-05-06 19:05 25.08217 51.80132 4426 ft 219 kts 154°
2026-05-06 19:05 25.06805 51.80768 4152 ft 220 kts 154°
2026-05-06 19:06 25.05319 51.81150 4021 ft 225 kts 182°
2026-05-06 19:06 25.03847 51.80525 3938 ft 234 kts 218°
2026-05-06 19:06 25.02906 51.79072 3760 ft 234 kts 252°
2026-05-06 19:06 25.02839 51.77332 3579 ft 227 kts 288°
2026-05-06 19:07 25.03552 51.75814 3400 ft 222 kts 306°
2026-05-06 19:07 25.04461 51.74428 3223 ft 225 kts 309°
2026-05-06 19:07 25.05390 51.73039 3091 ft 223 kts 309°
2026-05-06 19:07 25.06299 51.71671 3064 ft 219 kts 307°
2026-05-06 19:08 25.07200 51.70304 3014 ft 220 kts 307°
2026-05-06 19:08 25.08097 51.68937 3000 ft 220 kts 308°
2026-05-06 19:08 25.09192 51.67812 2988 ft 212 kts 334°
2026-05-06 19:08 25.10518 51.67174 3000 ft 206 kts 340°
2026-05-06 19:09 25.11843 51.66580 3004 ft 206 kts 340°
2026-05-06 19:09 25.13181 51.65995 2933 ft 206 kts 340°
2026-05-06 19:09 25.14480 51.65425 2614 ft 200 kts 340°
2026-05-06 19:09 25.15745 51.64864 2280 ft 184 kts 339°
2026-05-06 19:10 25.16844 51.64377 2013 ft 157 kts 340°
2026-05-06 19:10 25.17809 51.63954 1909 ft 146 kts 340°
2026-05-06 19:10 25.18738 51.63546 1628 ft 141 kts 340°
2026-05-06 19:10 25.19635 51.63150 1242 ft 138 kts 338°
2026-05-06 19:11 25.20494 51.62771 1078 ft 132 kts 338°
2026-05-06 19:11 25.21347 51.62396 895 ft 131 kts 337°
2026-05-06 19:11 25.22183 51.62021 796 ft 131 kts 337°
2026-05-06 19:11 25.23048 51.61639 635 ft 136 kts 338°
2026-05-06 19:12 25.23910 51.61249 425 ft 130 kts 339°
2026-05-06 19:12 25.24768 51.60870 252 ft 137 kts 340°
2026-05-06 19:12 25.25656 51.60483 49 ft 130 kts 340°
2026-05-06 19:12 25.26404 51.60161 32 ft 102 kts 339°
2026-05-06 19:13 25.26949 51.59922 30 ft 67 kts 338°
2026-05-06 19:13 25.27206 51.59821 31 ft 27 kts 354°